RH
100 100 100 100 78 58 30 18 9 7 6 8 7 7 6 6 6 6 8 9 12 20 55 70 78 90 73 70 80 84 100 100 100 100 100 100 100 100
100 100 97 79 59 33 18 11 8 6 5 6 6 6 5 4 4 4 4 5 8 16 29 44 76 100 76 98 86 79 84 100 100 100 100 99 77 100
100 100 87 52 36 23 11 8 6 6 5 6 4 4 3 3 3 3 3 4 5 8 16 33 48 69 97 100 73 90 72 95 100 100 100 100 87 100
100 94 66 38 23 10 8 6 5 5 4 4 3 3 3 3 3 4 3 4 4 6 12 30 44 86 100 98 98 100 100 100 100 100 92 100 100 100
100 80 44 27 12 8 6 6 5 4 4 3 3 3 3 3 3 4 3 4 5 6 8 20 50 100 100 100 100 100 100 100 100 100 100 100 92 98
90 67 34 15 8 7 6 5 5 4 3 2 3 3 3 3 3 4 4 4 5 6 8 10 31 95 94 100 100 100 100 100 100 100 100 100 100 89
71 46 20 10 7 7 6 6 5 4 3 3 3 3 3 3 3 4 4 4 4 5 6 8 14 38 98 100 100 100 100 100 100 100 100 100 100 100
67 31 13 9 7 7 6 5 5 3 3 3 3 3 3 3 3 4 4 4 4 5 6 7 11 24 97 88 98 100 100 100 100 100 100 100 100 100
40 19 12 8 8 7 6 6 4 3 3 4 4 3 3 3 3 3 4 4 4 4 6 7 9 14 59 64 84 99 100 100 100 100 100 100 100 100
25 13 10 8 7 7 7 6 4 3 3 3 4 2 2 3 3 3 4 4 4 4 5 7 8 11 15 28 48 88 100 100 98 100 100 100 100 100
15 10 9 8 7 6 7 6 4 3 3 3 3 3 2 3 3 3 4 4 4 4 4 5 7 9 9 11 19 33 73 86 92 99 100 100 100 100
12 10 9 8 7 6 6 4 3 3 3 3 3 3 2 2 3 3 3 4 5 5 4 4 5 5 8 10 9 12 28 45 70 94 100 100 100 100
10 10 9 8 8 7 6 4 3 3 4 4 3 3 3 2 3 3 3 4 5 6 6 7 6 6 8 11 13 14 17 26 49 83 98 100 100 100
9 9 9 8 8 7 6 4 4 4 4 4 3 3 3 3 3 3 3 4 4 5 6 8 8 8 7 7 9 11 12 14 20 41 74 96 100 100
9 8 8 8 8 7 5 4 4 4 4 4 4 4 4 4 4 4 4 4 5 5 5 6 6 6 6 6 6 6 6 9 11 13 20 27 58 85
9 9 8 8 8 7 5 4 5 5 4 4 4 4 4 4 4 4 4 5 5 5 6 6 7 7 7 6 6 6 6 7 7 8 11 14 15 20
10 10 9 10 9 8 6 5 6 5 4 4 5 5 5 5 6 6 6 6 7 8 10 12 12 14 13 11 9 7 7 7 7 8 8 11 15 17
10 10 10 11 9 8 6 5 6 6 5 5 6 6 6 7 8 7 7 9 11 10 12 16 20 22 18 15 15 14 12 11 10 9 9 10 10 12
11 10 10 11 9 9 7 6 7 7 6 6 7 8 8 9 10 12 12 13 17 19 23 25 24 27 25 25 30 26 23 25 20 22 20 21 21 18
12 11 11 11 10 9 8 7 8 8 8 8 9 11 11 12 16 18 16 23 32 35 37 34 36 41 43 42 40 40 37 40 37 34 36 37 38 41
13 11 11 11 11 10 9 8 10 9 10 10 11 14 15 19 23 21 28 28 34 45 51 61 60 61 66 70 74 72 67 71 73 70 69 70 73 70
14 12 11 11 12 11 10 8 10 10 10 11 12 16 19 22 23 25 33 41 45 56 62 56 50 58 64 70 69 71 73 73 75 79 81 80 78 79
14 12 11 12 12 12 12 9 11 12 11 12 14 16 23 25 26 29 31 40 49 60 62 73 71 74 82 84 87 88 88 86 85 84 81 81 78 76
Wind_Speed
112 125 130 145 136 134 127 120 110 99 93 93 90 88 84 85 85 82 83 88 94 102 116 119 115 113 107 112 113 108 99 88 80 78 88 91 87 83
124 133 146 140 135 130 120 110 104 100 89 85 78 78 77 74 72 72 70 70 77 87 98 102 106 95 107 99 108 102 105 103 100 94 93 101 87 87
135 149 144 134 133 124 112 106 98 90 82 76 68 66 68 65 64 61 64 66 69 76 84 95 99 105 92 90 100 96 100 104 114 109 103 99 99 95
145 144 137 131 125 113 107 97 87 79 73 64 65 60 59 57 55 54 59 62 64 66 78 84 89 89 97 111 101 93 96 99 107 112 111 110 105 104
147 142 136 127 113 105 96 86 80 73 65 60 57 54 52 49 46 48 54 58 60 65 71 84 86 96 93 93 92 103 98 101 106 114 110 116 114 111
148 140 129 115 105 95 87 80 74 70 63 56 50 48 47 45 40 45 52 58 59 63 70 80 91 102 99 90 84 93 99 99 99 108 118 120 117 118
140 134 120 107 98 89 81 75 70 66 60 53 45 44 44 42 38 42 48 56 62 65 69 76 84 95 100 103 98 98 105 100 98 93 108 117 116 115
139 126 111 102 95 86 78 71 64 59 57 51 45 43 41 42 38 40 46 50 57 62 67 73 81 92 107 112 112 108 111 105 110 107 103 106 105 107
130 116 104 97 89 82 75 71 63 54 48 47 46 42 38 39 40 39 43 48 55 59 65 70 79 88 106 113 117 115 117 116 110 110 114 107 108 115
118 106 99 89 81 74 68 68 63 53 45 42 43 43 35 34 36 37 41 46 52 57 58 69 75 86 97 104 113 121 122 122 123 121 120 116 113 117
106 98 92 82 75 68 63 61 58 51 45 40 40 37 33 31 32 35 37 44 51 56 59 65 73 79 82 88 99 109 120 123 125 124 122 121 120 122
99 92 88 79 70 65 61 56 52 48 44 39 37 34 32 29 28 32 33 37 42 47 50 55 64 70 77 84 87 96 106 116 121 120 120 126 124 128
92 87 82 73 66 62 58 53 48 44 41 37 34 32 29 27 28 30 32 34 37 40 42 46 49 54 63 70 76 83 91 97 106 115 120 121 125 129
86 79 74 67 61 58 54 48 43 39 37 33 29 27 25 26 26 26 28 32 35 38 42 45 46 49 51 56 66 72 77 81 91 102 110 117 123 126
81 74 69 63 58 54 49 44 40 35 33 29 26 23 22 22 22 23 25 27 30 34 37 39 41 43 45 48 51 56 62 70 75 79 91 99 110 117
78 74 67 60 56 52 46 41 38 34 30 27 24 22 20 21 21 21 21 23 26 28 30 32 34 35 36 38 42 46 51 56 63 71 79 84 89 94
72 70 64 58 53 49 43 37 35 33 29 25 22 21 19 19 18 20 21 22 24 25 28 30 31 32 32 34 36 40 45 49 54 60 65 67 72 76
67 64 59 55 49 44 39 34 32 31 27 23 20 19 18 17 18 20 21 22 24 26 27 28 29 30 31 31 33 36 40 42 45 51 56 62 67 71
64 60 56 52 46 41 36 32 30 28 25 22 18 17 17 17 18 19 20 22 24 24 24 24 26 27 28 29 29 28 30 34 38 41 45 49 52 55
60 58 55 49 44 39 34 29 27 26 24 20 18 17 18 18 19 22 23 21 21 21 21 22 23 24 25 24 24 25 26 28 30 32 35 38 41 43
60 57 53 47 40 37 32 26 25 24 24 21 20 19 19 21 22 22 22 22 23 24 25 24 25 24 24 23 22 22 23 24 25 27 29 31 33 36
57 56 51 46 39 36 32 25 25 24 25 24 23 22 22 24 25 25 25 25 26 26 26 25 24 24 24 23 23 24 25 26 27 29 31 33 36 38
57 52 48 44 38 33 32 26 24 25 25 26 25 26 26 28 29 28 29 29 29 30 30 31 30 29 30 30 30 31 31 32 34 35 38 40 42 43
Wind_Direction
317 318 318 317 314 311 309 307 304 301 296 292 288 283 277 272 269 265 259 254 250 246 241 241 242 244 239 239 240 241 231 228 231 234 237 240 239 247
317 319 317 317 314 312 310 307 304 302 299 293 286 281 277 272 267 262 257 249 243 240 238 237 237 233 245 242 241 241 233 228 234 238 235 245 242 243
319 318 319 317 316 312 310 308 305 301 298 294 287 281 276 271 266 259 253 246 240 234 232 232 230 233 236 235 239 238 236 235 235 235 235 243 241 242
319 321 318 317 315 313 312 308 303 301 298 296 290 284 277 272 264 255 249 242 236 232 225 226 225 226 224 229 235 237 233 235 234 237 237 240 240 240
321 321 318 317 316 315 312 308 305 303 303 299 292 286 280 271 261 250 244 239 231 226 220 219 218 217 223 224 225 229 231 231 233 235 238 242 241 241
322 319 318 317 317 315 314 311 308 307 305 300 293 288 282 271 259 246 239 237 231 226 223 217 215 214 218 222 221 226 230 233 231 235 237 239 241 242
321 319 318 318 317 317 314 312 310 307 304 300 294 288 281 273 261 248 239 235 231 226 224 222 219 216 215 212 210 219 222 226 225 229 236 237 241 243
320 319 319 318 317 317 315 312 309 307 303 302 297 287 281 273 264 250 242 235 233 228 224 223 220 217 212 214 212 215 218 223 226 225 226 235 238 243
319 319 319 317 317 318 316 313 312 308 304 302 296 287 279 272 265 255 245 238 233 230 226 224 222 220 217 218 219 220 223 222 222 226 233 235 236 241
319 319 318 317 316 316 315 313 312 309 307 302 293 291 285 273 265 258 244 238 235 233 225 224 223 223 224 224 223 223 226 226 228 226 230 233 234 239
321 320 318 318 317 316 316 314 309 309 308 302 292 288 280 268 262 256 247 238 238 237 233 223 225 226 230 229 228 229 226 230 231 232 233 232 236 238
320 319 318 318 319 318 318 315 309 309 307 300 291 285 277 269 256 250 245 240 240 241 241 238 231 229 227 229 230 231 232 233 233 233 234 234 236 241
319 319 318 318 320 319 319 313 310 309 306 298 291 286 279 270 256 246 237 231 232 236 238 237 236 232 231 233 234 236 238 239 239 238 238 235 236 239
318 318 319 319 319 320 318 313 311 309 302 296 293 285 280 272 262 249 240 233 231 232 233 235 235 232 229 226 228 232 235 235 236 238 239 238 238 239
319 319 320 320 320 320 319 314 313 308 299 297 293 287 277 268 257 248 241 235 229 227 229 231 234 235 234 233 230 229 229 231 233 234 236 238 239 240
319 320 320 322 321 320 320 315 311 307 301 296 291 282 272 264 258 250 240 234 233 232 229 231 232 234 233 232 232 230 229 229 229 229 230 233 238 242
318 319 320 322 320 319 320 314 308 306 302 295 288 278 268 261 251 246 238 233 229 227 225 223 227 229 229 229 230 231 230 229 229 230 232 233 235 237
317 318 319 320 318 319 318 312 306 304 299 293 282 273 265 254 244 238 236 227 228 225 219 217 220 222 226 227 227 226 228 227 229 232 232 233 235 237
317 318 319 318 317 320 318 310 303 300 293 288 276 268 255 248 240 240 232 223 221 218 212 214 215 215 218 219 222 222 222 224 228 230 231 233 237 240
316 316 318 318 317 319 316 306 300 293 287 279 264 258 249 238 239 237 224 219 218 214 212 212 213 212 214 214 217 217 220 221 223 226 229 232 236 239
316 315 315 315 315 315 314 302 294 284 276 268 253 247 239 237 233 224 225 222 218 214 211 209 209 209 210 212 216 219 222 225 228 231 234 236 238 242
313 310 312 312 312 312 310 300 288 278 271 263 250 242 235 233 231 225 222 217 218 220 222 220 219 216 217 215 218 223 229 236 239 241 243 245 247 249
309 307 307 307 307 308 305 297 283 275 268 260 250 240 238 232 229 224 222 218 217 221 225 226 226 228 232 236 238 238 240 242 244 246 248 251 253 255